Home   Weather   42°03'N, 88°17'W   Past weeks
Flag for USA

Past Weather in 42°03'N, 88°17'W, USA — Yesterday and Last 2 Weeks

Now
36 °F

Overcast.


Feels Like: 25 °F
Forecast: 37 / 25 °F
Wind: 20 mph from Northwest

Location: Chicago Midway Airport

Current Time: Feb 18, 2020 at 9:37:54 am

Latest Report: Feb 18, 2020 at 8:53 am


Visibility: 10 mi

Pressure: 30.09 "Hg

Humidity: 75%

Dew Point: 29 °F

Location of 42°03'N, 88°17'WLocation

Past Weather in 42°03'N, 88°17'W — Graph

°F

42°03'N, 88°17'W Temperature Yesterday

Maximum temperature yesterday: 40 °F (at 11:53 am)
Minimum temperature yesterday: 30 °F (at 1:53 am)
Average temperature yesterday: 35 °F

High & Low Weather Summary for the Past Weeks

 TemperatureHumidityPressure
High46 °F (Feb 3, 11:53 am)100% (Feb 17, 11:53 pm)30.66 "Hg (Feb 17, 11:53 pm)
Low-1 °F (Feb 14, 5:53 am)34% (Feb 7, 2:53 pm)29.57 "Hg (Feb 7, 1:03 am)
Average29 °F74%30.04 "Hg
* Reported Feb 3 7:53 am — Feb 18 7:53 am, 42°03'N, 88°17'W. Weather by CustomWeather, © 2020

Note: Actual official high and low records may vary slightly from our data, if they occured in-between our weather recording intervals... More about our weather records

42°03'N, 88°17'W Weather History for the Previous 24 Hours

Scroll right to see more
 ConditionsComfort  
Time TempWeatherWind HumidityBarometerVisibility
7:53 am
Tue, Feb 18
36 °FMostly cloudy.16 mph73%30.06 "Hg10 mi
6:53 am36 °FOvercast.14 mph75%30.02 "Hg10 mi
5:53 am36 °FMostly cloudy.18 mph79%29.98 "Hg10 mi
5:12 am36 °FOvercast.14 mph82%29.93 "Hg10 mi
4:53 am36 °FOvercast.14 mph85%29.94 "Hg10 mi
4:05 am37 °FMostly cloudy.16 mph89%29.88 "Hg8 mi
3:53 am37 °FLow clouds.20 mph93%29.89 "Hg7 mi
2:53 am38 °FFog.18 mph93%29.86 "Hg5 mi
2:28 am38 °FFog.14 mph97%29.83 "Hg4 mi
1:53 am38 °FFog.13 mph97%29.83 "Hg2 mi
12:53 am38 °FFog.8 mph97%29.81 "Hg2 mi
11:53 pm
Mon, Feb 17
37 °FDrizzle. Fog.8 mph100%29.80 "Hg1 mi
11:07 pm37 °FDrizzle. Fog.9 mph96%29.79 "Hg2 mi
9:53 pm37 °FDrizzle. Fog.12 mph93%29.84 "Hg2 mi
8:53 pm37 °FDrizzle. Fog.10 mph93%29.86 "Hg2 mi
7:53 pm37 °FLight rain. Fog.7 mph89%29.88 "Hg2 mi
7:02 pm37 °FFog.12 mph89%29.87 "Hg4 mi
5:53 pm35 °FLight rain. Fog.10 mph88%29.90 "Hg2 mi
5:02 pm35 °FLight rain. Fog.9 mph88%29.88 "Hg4 mi
4:25 pm35 °FLight rain. Fog.12 mph88%29.90 "Hg3 mi
4:12 pm36 °FLight rain. Fog.12 mph85%29.90 "Hg3 mi
3:53 pm36 °FLight rain. Fog.15 mph85%29.93 "Hg3 mi
2:53 pm37 °FLight rain. Fog.14 mph82%29.97 "Hg5 mi
1:53 pm38 °FLight rain. Mostly cloudy.12 mph73%30.00 "Hg7 mi
12:53 pm40 °FCloudy.15 mph55%30.02 "Hg10 mi
11:53 am40 °FMore clouds than sun.16 mph55%30.04 "Hg10 mi
10:53 am38 °FMore clouds than sun.12 mph60%30.09 "Hg10 mi
9:53 am37 °FCloudy.10 mph60%30.11 "Hg10 mi
Weather by CustomWeather, © 2020

See weather overview

Advertising